SCP
0 0 0 -0 0 -0 -0 0 0 0 0 0 -0 -0 -0 -0 -0 0 0 0 0 0 0 0 0 0 0 0 -0 0 0 0 0 0 -0 0 0 0 0 0 0 0 0 0 0 0 0 0 0 0 0 0 0 0
0 0 0 0 0 0 0 0 0 0 0 0 0 0 -0 -0 -0 -0 0 0 0 0 0 0 0 0 0 -0 0 0 0 0 0 -0 0 0 0 0 0 0 0 0 0 0 0 0 0 0 0 0 0 0 0 0
0 0 0 0 0 0 0 0 0 0 0 0 0 0 0 0 -0 -0 0 0 0 0 0 0 0 0 0 -0 0 0 0 0 0 0 0 0 0 0 0 0 0 0 0 0 0 0 0 0 0 0 0 0 0 0
0 0 0 0 0 0 0 0 0 0 0 0 0 0 0 0 0 0 0 0 -0 0 0 0 0 0 0 -0 0 0 0 0 -0 0 0 0 0 0 0 0 0 0 0 0 0 0 0 0 0 0 0 0 0 0
0 0 0 0 0 0 0 0 0 0 0 0 0 0 0 0 0 0 0 0 0 0 0 0 0 0 0 0 0 0 0 0 0 0 0 0 0 0 0 0 0 0 0 0 0 0 0 0 0 0 0 0 0 0
0 0 0 0 0 0 0 0 0 0 0 0 0 0 0 0 0 0 0 0 0 0 0 0 0 0 0 0 0 0 0 0 0 0 0 0 0 0 0 0 0 0 0 0 0 0 0 0 0 0 0 0 0 0
0 0 0 0 0 0 0 0 0 0 0 0 0 0 0 0 0 0 0 0 0 0 0 0 0 0 0 0 0 0 0 0 0 0 0 0 0 0 0 0 0 0 0 0 0 0 0 0 0 0 0 0 0 0
0 0 0 0 0 0 0 0 0 0 0 0 0 0 0 0 0 0 0 0 0 0 0 0 0 0 0 0 0 0 0 0 0 0 0 0 0 0 0 0 0 0 0 0 0 0 0 0 0 0 0 0 0 0
0 0 0 0 0 0 0 0 0 0 0 0 0 0 0 0 0 0 0 0 0 0 0 0 0 0 0 0 0 0 0 0 0 0 0 0 0 0 0 0 0 0 0 0 0 0 0 0 0 0 0 0 0 0
0 0 0 0 0 0 0 0 0 0 0 0 0 0 0 0 0 0 0 0 0 0 0 0 0 0 0 0 0 0 0 0 0 0 0 0 0 0 0 0 0 0 0 0 0 0 0 0 0 0 0 0 0 0
0 0 0 0 0 0 0 0 0 0 0 0 0 0 0 0 0 0 0 0 0 0 0 0 0 0 0 0 0 0 0 0 0 0 0 0 0 0 0 0 0 0 0 0 0 0 0 0 0 0 0 0 0 0
0 0 0 0 0 0 0 0 0 0 0 0 0 0 0 0 0 0 0 0 0 0 0 0 0 0 0 0 0 0 0 0 0 0 0 0 0 0 0 0 0 0 0 0 0 0 0 0 0 0 0 0 0 0
0 0 0 0 0 0 0 0 0 0 0 0 0 0 0 0 0 0 0 0 0 0 0 0 0 0 0 0 0 0 0 0 0 0 0 0 0 0 0 0 0 0 0 0 0 0 0 0 0 0 0 0 0 0
0 0 0 0 0 0 0 0 0 0 0 0 0 0 0 0 0 0 0 0 0 0 0 0 0 0 0 0 0 0 0 0 0 0 0 0 0 0 0 0 0 0 0 0 0 0 0 0 0 0 0 0 0 0
0 0 0 0 0 0 0 0 0 0 0 0 0 0 0 0 0 0 0 0 0 -0 0 0 0 0 0 0 0 0 0 0 0 0 0 0 0 0 0 0 -0 -0 0 0 0 0 0 0 0 0 0 0 0 0
0 0 0 0 0 0 0 0 0 0 0 0 0 0 0 0 0 0 0 0 0 0 0 0 0 0 0 0 0 0 0 0 0 0 0 0 0 0 -0 -0 -0 0 0 0 0 0 0 0 0 0 0 0 0 0
0 0 0 0 0 0 0 0 0 0 0 0 0 0 0 0 0 0 0 0 0 0 0 0 0 0 0 0 0 0 0 0 0 0 0 0 0 0 0 -0 -0 0 0 0 0 0 0 0 0 0 0 0 0 0
0 0 0 0 0 0 0 0 0 0 0 0 0 0 0 0 0 0 0 0 0 0 0 0 0 0 0 0 0 0 -0 0 0 0 0 0 0 0 0 0 0 0 0 0 0 0 0 0 0 0 0 0 0 0
0 0 0 0 0 0 0 0 0 0 0 0 0 0 0 0 0 -0 0 0 0 0 0 0 0 0 0 0 0 0 0 0 0 0 0 0 0 0 0 0 0 0 0 0 0 0 0 0 0 0 0 0 0 0
0 0 0 0 0 0 0 0 0 0 0 0 0 0 0 0 0 -0 0 0 0 0 0 0 0 0 0 0 0 0 0 0 0 0 0 0 0 0 0 0 0 0 0 0 0 0 0 0 0 0 0 0 0 0
0 0 0 0 0 0 0 0 0 0 0 0 0 0 0 0 0 0 0 0 0 0 0 0 0 0 0 0 0 0 0 0 0 0 0 0 0 0 0 0 0 0 0 0 0 0 0 0 0 0 0 0 0 0
0 0 0 0 0 0 0 0 0 0 0 0 0 0 0 0 0 0 0 0 0 0 0 0 0 0 0 0 0 0 0 0 0 0 0 0 0 0 0 0 0 0 0 0 0 0 0 0 -0 -0 0 0 0 0
0 0 0 0 0 0 0 0 0 0 0 0 0 0 0 0 0 0 0 0 0 0 0 0 0 0 0 0 0 0 0 0 0 0 0 0 0 0 0 0 0 0 0 0 0 0 0 0 0 0 0 0 0 0
0 0 0 0 0 0 0 0 0 0 0 0 0 0 0 0 0 0 0 -0 0 0 0 0 0 0 0 0 0 0 0 0 0 0 0 0 0 0 0 0 0 0 0 0 0 0 0 0 0 0 0 0 0 0
0 0 0 0 0 0 0 0 0 0 0 0 0 0 0 0 0 0 0 0 0 0 0 0 0 0 0 0 0 0 0 0 0 0 0 0 0 0 0 0 0 0 0 0 0 0 0 0 0 0 0 0 0 0
0 0 0 0 0 0 0 0 0 0 0 0 0 0 0 0 0 0 0 0 0 0 0 0 0 0 0 0 0 0 0 0 0 0 0 0 0 0 0 0 0 0 0 0 0 0 0 0 0 0 0 0 0 0
0 0 0 0 0 0 0 0 0 0 0 0 0 0 0 0 0 0 0 0 0 0 0 0 0 0 0 0 0 0 0 0 0 0 0 0 0 0 0 0 0 0 0 0 0 0 0 0 0 -0 -0 -0 0 0
0 0 0 0 0 0 0 0 0 0 0 0 0 0 0 0 0 0 0 0 0 0 0 0 0 0 0 0 0 0 0 0 0 0 0 0 0 0 0 0 0 0 0 0 0 0 0 0 0 -0 -0 -0 0 -0
0 0 0 0 0 0 0 0 0 0 0 0 0 0 0 0 -0 0 0 0 0 0 0 0 0 0 0 0 0 0 0 0 0 0 0 0 0 0 0 0 0 0 0 0 0 0 0 -0 -0 -0 0 0 0 0
0 0 0 0 0 0 0 0 0 0 -0 0 0 0 0 0 0 0 0 0 0 0 0 0 0 0 0 0 0 0 0 0 0 0 0 0 0 0 0 0 0 0 0 0 0 -0 -0 -0 0 -0 0 0 0 0
0 0 0 0 0 -0 0 0 0 0 0 0 0 0 0 0 0 0 0 0 0 0 0 0 0 0 0 0 0 0 0 0 0 0 0 0 0 0 0 0 0 0 0 0 0 0 -0 -0 0 -0 -0 -0 0 0
0 0 0 0 0 0 0 0 0 0 0 0 0 0 0 0 0 0 0 0 0 0 0 0 0 0 0 0 0 0 0 0 0 0 0 0 0 0 0 0 -0 0 -0 -0 -0 -0 -0 -0 -0 -0 -0 -0 -0 -0
0 0 0 0 0 0 0 0 0 0 0 0 0 0 0 0 0 0 0 0 0 0 0 0 0 0 0 0 0 0 0 0 0 0 0 0 0 0 0 0 0 -0 -0 -0 0 -0 0 -0 -0 -0 -0 -0 -0 0
Wind_Speed_500mb
43 41 38 34 29 29 29 30 27 26 24 23 26 31 29 28 28 21 3 4 13 10 42 22 8 9 16 7 9 6 4 8 2 6 6 8 7 12 10 10 7 3 7 4 5 7 7 7 8 14 17 30 57 60
38 39 36 32 29 29 28 29 25 26 23 23 25 28 32 28 26 24 10 15 21 27 35 36 48 35 37 12 16 7 17 5 10 6 4 5 6 2 7 10 4 5 11 10 11 10 9 8 44 74 71 70 59 78
32 32 33 29 27 27 28 29 30 27 27 24 25 28 31 27 29 27 24 20 18 13 36 20 1 18 24 40 35 13 11 17 30 40 13 4 7 5 5 4 4 7 6 8 10 6 13 59 65 69 66 70 62 58
25 25 27 23 25 27 27 28 29 27 31 26 25 28 30 27 27 29 27 19 12 10 8 13 13 14 32 25 17 30 24 21 27 20 8 5 6 5 7 7 8 11 8 12 1 12 32 34 69 71 66 62 56 45
22 24 24 26 27 29 27 25 25 25 26 27 28 27 29 28 26 25 18 7 8 4 7 27 36 11 30 27 30 20 22 25 13 2 6 4 5 6 4 6 2 7 12 9 10 44 23 45 66 64 62 52 43 38
24 26 26 26 28 26 26 26 25 23 25 26 26 27 27 27 24 19 6 7 5 5 9 8 18 9 14 26 26 23 22 13 12 5 5 3 5 7 6 7 9 6 17 28 16 53 54 67 61 51 51 41 29 19
24 26 24 28 30 27 27 24 19 23 24 25 25 25 23 26 21 13 5 4 7 12 7 12 14 11 21 27 19 14 21 15 10 10 9 9 10 13 6 8 12 18 19 23 49 66 57 65 62 47 44 40 27 24
23 24 25 26 24 23 22 22 20 24 24 24 23 20 22 23 21 12 7 20 19 10 9 5 9 11 26 14 11 24 13 16 9 7 3 5 9 6 3 11 27 35 44 61 71 48 68 65 56 45 37 34 29 28
25 27 27 26 21 18 19 18 19 20 20 20 18 19 17 5 2 3 6 7 9 13 6 5 5 7 5 14 13 13 14 3 5 5 6 8 1 6 15 25 30 44 42 49 50 71 70 64 58 48 41 38 34 30
20 18 18 16 16 15 17 17 15 13 13 13 11 2 2 3 8 12 7 6 8 12 13 9 10 7 12 3 3 6 4 7 2 10 9 6 8 9 25 30 26 42 52 63 71 56 61 54 50 40 31 28 21 22
12 16 18 19 17 17 17 15 11 7 6 3 2 2 5 6 5 6 6 9 10 6 15 17 35 12 7 2 9 11 7 3 4 10 10 4 5 15 26 23 46 50 55 50 44 51 48 50 50 43 36 27 20 16
6 10 14 16 17 17 17 16 12 10 5 1 3 10 5 5 7 4 7 6 9 9 11 13 19 29 17 13 6 6 6 5 7 3 6 5 9 22 28 41 55 53 48 47 45 56 57 49 43 39 31 25 21 19
3 7 11 13 14 14 15 14 14 12 9 4 3 3 5 7 1 9 8 7 6 8 11 15 5 15 16 9 1 6 5 9 2 4 6 9 9 18 44 52 51 46 46 54 60 61 59 50 39 31 30 26 23 19
3 4 7 10 11 12 9 8 11 12 9 7 5 6 8 9 10 10 8 9 25 30 44 29 13 12 9 4 4 7 7 5 3 6 11 7 28 39 63 63 61 61 58 63 63 56 49 43 36 27 21 23 20 18
5 4 2 1 1 4 7 8 11 15 9 6 5 8 10 20 27 38 36 26 36 43 53 14 4 11 1 4 2 3 5 7 9 8 8 25 46 60 64 66 63 64 61 56 49 41 36 30 24 23 18 17 14 12
4 4 1 2 3 4 8 11 11 11 4 5 10 8 19 14 14 27 37 29 45 48 19 2 4 5 6 9 6 10 5 9 8 7 11 42 58 61 65 63 64 60 52 43 34 32 30 25 20 19 19 18 15 11
9 5 1 3 6 6 8 10 8 9 7 7 13 21 28 34 30 35 26 36 45 23 4 7 7 12 1 6 7 9 9 8 16 22 34 57 63 64 64 66 63 52 41 32 30 27 23 20 24 22 21 22 15 9
8 4 1 4 9 4 11 9 5 5 9 15 13 25 15 25 32 20 20 28 26 27 7 4 13 6 7 7 5 8 7 22 36 43 50 53 53 56 61 64 55 45 39 32 27 27 27 26 25 25 19 20 17 15
4 2 8 12 8 8 8 7 7 7 17 18 27 40 34 32 31 21 22 25 23 29 15 5 4 4 5 1 3 6 25 47 49 44 43 43 46 51 57 54 51 45 37 36 34 28 26 21 28 22 22 21 23 21
5 5 7 11 8 9 5 5 9 9 9 10 18 28 26 21 23 28 27 26 21 21 7 6 7 4 7 27 14 17 38 48 53 47 39 39 43 45 51 55 50 44 40 36 27 22 24 28 33 28 21 24 32 26
8 5 4 2 5 11 5 6 9 10 13 13 18 19 12 17 20 24 18 10 9 3 7 12 11 17 7 18 9 22 39 41 51 47 47 46 45 45 51 47 44 42 39 36 29 28 28 25 28 28 20 16 22 26
8 10 4 4 8 5 9 14 11 9 9 15 17 9 8 5 6 8 8 18 13 22 18 9 9 18 34 22 10 11 28 32 24 26 34 41 52 50 48 46 40 36 33 31 30 30 31 26 23 31 31 26 26 23
6 2 4 7 8 9 9 13 11 9 6 7 5 5 6 6 9 6 9 12 22 45 45 37 21 34 17 38 25 19 24 27 30 29 29 40 43 48 47 44 41 34 37 40 34 32 27 27 34 36 27 37 35 29
10 5 6 9 14 7 8 10 12 8 10 6 6 5 6 10 6 7 7 10 23 22 43 64 65 44 30 27 17 18 25 18 24 26 32 34 41 47 43 47 35 34 46 52 46 43 40 32 35 40 25 47 42 30
7 9 9 10 12 9 8 7 9 7 7 11 7 5 5 8 4 6 6 11 29 45 44 58 65 44 33 24 15 20 12 22 14 13 27 39 39 37 43 38 33 29 39 47 55 43 42 39 36 29 29 44 39 32
8 11 12 13 10 11 10 6 13 14 5 6 10 9 12 5 6 9 6 11 13 26 26 48 55 45 35 22 22 8 7 7 10 9 21 32 40 34 38 40 42 41 33 47 44 51 38 27 29 34 35 35 33 35
8 10 22 20 13 8 8 9 8 6 6 7 5 8 8 7 9 7 2 10 17 9 20 14 28 38 28 25 23 16 17 10 1 14 12 15 20 26 25 27 33 27 32 35 37 40 33 30 32 36 40 36 26 32
14 13 9 10 13 18 4 1 6 8 8 9 5 5 5 4 3 9 8 10 6 26 19 24 18 26 23 22 21 14 9 11 11 11 19 24 19 17 17 22 19 26 14 25 29 21 29 25 35 32 28 31 27 26
15 17 15 12 10 10 12 9 7 4 4 5 3 5 9 9 9 9 3 3 5 9 18 14 19 20 13 2 8 7 6 11 16 22 21 22 17 17 17 18 29 25 21 27 24 21 29 28 38 30 18 8 3 22
12 11 16 9 7 7 12 24 13 10 10 18 10 12 26 30 22 7 11 13 8 20 14 5 14 9 14 17 25 21 18 21 25 19 28 27 24 24 18 19 29 23 25 25 27 31 34 31 30 21 19 22 20 22
12 10 10 6 8 14 14 20 17 11 20 19 17 15 20 11 29 31 19 20 13 14 15 8 5 9 19 20 30 36 29 18 23 13 11 21 24 13 17 28 38 29 15 20 29 31 31 30 30 26 24 22 24 9
16 8 12 8 10 13 15 16 17 24 29 33 33 38 41 32 20 37 22 18 29 23 19 14 14 17 14 16 6 6 25 33 20 18 22 14 13 19 25 29 26 16 32 30 40 38 32 31 24 32 26 20 14 6
10 6 1 6 6 6 5 6 6 6 7 2 3 4 5 4 6 4 8 8 8 9 19 19 17 9 17 11 18 17 15 16 17 24 19 16 20 31 36 34 24 27 19 37 44 38 30 24 20 19 11 14 10 10
Wind_Direction_500mb
267 264 262 267 269 277 284 292 296 300 309 317 326 336 335 339 344 356 240 325 345 274 288 277 219 323 352 76 119 274 331 14 156 110 169 245 149 216 113 183 141 325 113 196 84 99 259 267 356 109 157 110 108 106
268 258 254 259 264 273 278 284 289 296 302 309 319 328 335 331 336 340 332 288 283 269 269 278 278 262 254 180 100 249 143 115 301 22 191 213 71 92 126 163 153 194 188 170 158 206 223 74 125 135 131 124 115 120
265 249 246 247 258 269 278 279 275 283 292 297 312 322 330 328 328 328 329 326 323 280 296 282 347 219 227 192 195 195 225 80 286 274 206 157 92 118 107 210 107 296 115 101 71 310 118 122 126 131 130 123 124 125
258 243 239 243 257 266 273 283 284 279 284 294 302 312 322 322 323 322 325 323 310 300 283 278 290 161 157 174 204 218 218 210 255 268 76 99 115 147 204 178 145 203 116 138 74 83 104 124 133 133 127 130 128 128
255 237 239 246 257 269 272 274 283 286 287 292 298 303 312 315 317 319 319 247 179 350 287 295 318 177 181 186 202 203 206 233 276 308 74 216 204 105 14 80 279 194 174 147 206 183 151 156 140 142 136 134 135 131
244 237 240 246 259 269 274 274 280 283 281 287 293 299 306 308 316 327 200 186 206 327 299 314 315 285 161 179 171 205 229 249 241 234 243 261 146 138 119 191 247 206 212 190 171 178 158 150 145 150 136 137 138 134
238 234 243 257 265 269 274 280 281 285 287 289 293 297 298 301 303 286 240 172 215 238 265 304 292 244 218 172 182 218 211 239 256 213 210 186 194 175 111 175 216 134 148 155 152 145 132 150 144 145 139 137 138 130
234 238 249 258 261 261 264 273 274 279 286 293 294 290 293 295 298 286 265 227 255 268 244 258 270 306 180 161 189 204 209 201 213 206 175 154 153 119 167 223 162 144 147 150 151 166 154 141 138 134 138 143 146 150
243 246 254 256 257 259 261 264 270 279 285 288 291 298 302 276 225 4 280 246 230 228 261 257 224 253 213 184 189 188 192 109 237 159 225 141 292 197 212 176 154 154 155 150 146 141 142 143 140 142 141 152 150 151
237 234 236 240 242 251 260 256 268 281 282 288 303 290 55 38 309 301 258 240 222 210 226 235 266 271 348 336 201 133 148 179 114 243 190 132 228 215 185 190 188 174 161 156 143 140 145 143 148 151 161 165 169 171
221 226 231 235 238 242 247 253 264 262 249 227 124 285 285 281 246 239 242 197 194 250 219 234 226 234 283 189 219 197 178 170 131 261 141 218 257 235 224 202 174 169 174 181 190 180 186 185 167 167 166 166 173 182
215 223 225 230 233 236 244 245 240 225 218 182 279 295 264 247 236 237 228 242 179 228 214 196 225 211 218 251 184 191 157 73 218 165 106 203 246 234 200 188 174 171 169 178 184 173 170 171 175 172 166 166 165 169
218 231 232 228 234 238 245 244 230 216 227 247 248 274 224 231 299 207 225 249 221 228 221 190 213 188 199 247 136 100 117 205 170 55 225 222 213 184 179 156 152 164 168 166 165 164 162 160 166 171 157 156 158 155
169 191 226 231 237 238 232 215 200 191 183 190 168 295 194 232 231 201 231 256 279 304 309 314 197 182 192 100 144 111 235 86 202 194 214 227 200 165 157 158 157 155 158 152 149 152 152 154 155 156 161 162 164 167
190 190 190 159 214 218 193 180 184 182 195 184 205 229 238 249 288 304 296 296 322 304 290 262 160 174 107 115 170 96 150 220 208 221 228 196 174 158 158 159 160 157 155 152 154 155 155 153 150 143 143 150 161 129
178 186 172 20 329 251 204 185 179 178 236 233 234 269 283 299 338 344 344 351 352 339 318 73 112 119 202 165 140 216 195 196 236 223 230 171 165 165 164 167 166 161 155 152 155 157 153 153 155 148 148 137 127 103
166 135 225 306 299 269 192 181 157 197 229 241 253 261 274 289 273 292 325 345 349 354 314 49 320 206 170 150 190 189 204 213 192 176 175 170 169 172 175 171 163 159 157 158 161 160 150 144 147 151 163 182 206 222
133 124 274 309 287 252 181 174 194 239 253 254 257 265 280 287 309 310 328 343 358 342 329 256 305 346 195 195 236 260 243 187 173 169 173 174 175 176 176 169 167 169 165 166 169 166 170 171 176 184 167 177 194 207
226 310 310 304 251 179 170 193 212 262 245 261 268 268 275 283 289 287 296 320 307 330 276 267 245 262 288 23 205 168 172 161 161 167 172 177 181 174 173 174 174 173 176 176 178 184 189 192 174 186 187 196 218 225
228 289 328 331 171 182 199 224 205 250 260 270 259 266 265 264 279 292 300 313 307 321 288 210 203 115 317 355 345 198 176 162 156 156 163 172 177 172 174 176 176 178 178 177 178 181 189 197 199 206 219 254 236 233
252 253 325 358 207 214 227 242 236 243 271 262 277 304 262 242 266 281 291 270 215 229 277 17 14 269 301 16 38 166 174 172 169 170 172 171 177 178 173 178 182 181 184 183 190 194 189 186 195 201 200 177 176 190
259 247 307 225 207 228 262 234 239 273 260 272 294 265 271 268 261 241 252 222 217 216 236 336 350 339 295 271 329 150 183 173 176 170 174 175 174 179 182 185 184 188 204 209 204 205 205 201 186 196 206 211 204 210
222 240 245 219 211 225 258 229 238 218 249 268 257 249 241 234 241 244 255 239 235 231 241 239 239 281 269 254 278 180 154 169 174 197 189 179 179 184 183 186 184 200 217 219 210 201 211 212 212 222 244 224 214 214
221 232 230 215 206 252 236 228 216 243 222 230 238 213 223 228 222 229 245 247 251 255 235 233 248 269 259 259 200 171 174 195 199 193 194 201 188 182 194 202 196 209 214 216 224 218 208 224 229 230 241 207 211 219
223 212 214 223 212 221 230 231 193 207 245 212 213 256 254 201 222 235 241 260 245 233 226 215 225 247 251 226 196 253 203 193 194 156 195 213 205 197 193 200 211 206 196 203 208 202 214 225 222 222 207 208 220 219
234 220 209 208 202 213 208 234 193 207 256 213 222 231 185 190 236 242 241 278 252 221 230 212 219 217 221 207 180 133 124 219 231 173 184 203 212 213 191 182 188 197 208 211 226 223 231 233 206 202 209 214 222 217
248 241 220 225 250 268 266 230 232 286 259 227 231 176 184 231 229 255 247 51 67 164 196 185 195 194 191 185 203 201 241 233 240 217 211 185 188 194 198 192 194 200 194 203 210 224 229 226 211 205 215 226 249 221
244 256 228 230 225 240 222 174 261 219 209 234 294 234 222 243 298 342 349 7 118 89 141 180 166 148 142 127 125 127 151 201 199 149 151 175 181 171 197 220 185 174 187 213 205 207 206 204 198 194 213 229 240 239
237 233 207 274 214 218 215 223 244 261 161 186 251 293 335 311 292 316 242 34 165 192 72 65 144 180 188 234 234 259 271 216 177 163 164 156 160 191 208 200 181 195 223 210 209 200 184 186 177 200 211 175 36 211
242 225 187 264 206 241 215 191 221 256 265 282 217 277 299 288 271 294 249 226 206 166 203 304 152 177 203 212 202 202 225 224 222 214 202 197 205 216 220 221 206 197 195 203 191 166 173 178 188 201 206 232 226 225
253 229 159 236 282 278 269 272 264 257 247 247 245 248 245 261 299 302 254 229 242 219 232 248 271 123 230 257 233 244 229 215 209 217 192 206 214 239 229 191 178 161 178 206 182 186 193 194 195 204 204 198 196 227
250 216 157 173 247 288 291 289 257 250 250 242 243 247 259 258 262 283 288 237 229 239 239 256 289 306 335 296 223 222 213 204 198 206 191 211 201 185 162 157 153 163 180 178 169 163 171 186 196 210 198 191 218 279
259 228 233 280 253 239 235 261 244 290 262 278 293 300 278 255 266 8 110 149 177 230 240 253 264 273 205 202 166 170 172 181 195 204 198 184 173 187 196 173 191 197 195 198 190 191 202 195 190 187 212 241 253 244
Wind_Speed_850mb
43 41 38 34 29 29 29 30 27 26 24 23 26 31 29 28 28 21 3 4 13 10 42 22 8 9 16 7 9 6 4 8 2 6 6 8 7 12 10 10 7 3 7 4 5 7 7 7 8 14 17 30 57 60
38 39 36 32 29 29 28 29 25 26 23 23 25 28 32 28 26 24 10 15 21 27 35 36 48 35 37 12 16 7 17 5 10 6 4 5 6 2 7 10 4 5 11 10 11 10 9 8 44 74 71 70 59 78
32 32 33 29 27 27 28 29 30 27 27 24 25 28 31 27 29 27 24 20 18 13 36 20 1 18 24 40 35 13 11 17 30 40 13 4 7 5 5 4 4 7 6 8 10 6 13 59 65 69 66 70 62 58
25 25 27 23 25 27 27 28 29 27 31 26 25 28 30 27 27 29 27 19 12 10 8 13 13 14 32 25 17 30 24 21 27 20 8 5 6 5 7 7 8 11 8 12 1 12 32 34 69 71 66 62 56 45
22 24 24 26 27 29 27 25 25 25 26 27 28 27 29 28 26 25 18 7 8 4 7 27 36 11 30 27 30 20 22 25 13 2 6 4 5 6 4 6 2 7 12 9 10 44 23 45 66 64 62 52 43 38
24 26 26 26 28 26 26 26 25 23 25 26 26 27 27 27 24 19 6 7 5 5 9 8 18 9 14 26 26 23 22 13 12 5 5 3 5 7 6 7 9 6 17 28 16 53 54 67 61 51 51 41 29 19
24 26 24 28 30 27 27 24 19 23 24 25 25 25 23 26 21 13 5 4 7 12 7 12 14 11 21 27 19 14 21 15 10 10 9 9 10 13 6 8 12 18 19 23 49 66 57 65 62 47 44 40 27 24
23 24 25 26 24 23 22 22 20 24 24 24 23 20 22 23 21 12 7 20 19 10 9 5 9 11 26 14 11 24 13 16 9 7 3 5 9 6 3 11 27 35 44 61 71 48 68 65 56 45 37 34 29 28
25 27 27 26 21 18 19 18 19 20 20 20 18 19 17 5 2 3 6 7 9 13 6 5 5 7 5 14 13 13 14 3 5 5 6 8 1 6 15 25 30 44 42 49 50 71 70 64 58 48 41 38 34 30
20 18 18 16 16 15 17 17 15 13 13 13 11 2 2 3 8 12 7 6 8 12 13 9 10 7 12 3 3 6 4 7 2 10 9 6 8 9 25 30 26 42 52 63 71 56 61 54 50 40 31 28 21 22
12 16 18 19 17 17 17 15 11 7 6 3 2 2 5 6 5 6 6 9 10 6 15 17 35 12 7 2 9 11 7 3 4 10 10 4 5 15 26 23 46 50 55 50 44 51 48 50 50 43 36 27 20 16
6 10 14 16 17 17 17 16 12 10 5 1 3 10 5 5 7 4 7 6 9 9 11 13 19 29 17 13 6 6 6 5 7 3 6 5 9 22 28 41 55 53 48 47 45 56 57 49 43 39 31 25 21 19
3 7 11 13 14 14 15 14 14 12 9 4 3 3 5 7 1 9 8 7 6 8 11 15 5 15 16 9 1 6 5 9 2 4 6 9 9 18 44 52 51 46 46 54 60 61 59 50 39 31 30 26 23 19
3 4 7 10 11 12 9 8 11 12 9 7 5 6 8 9 10 10 8 9 25 30 44 29 13 12 9 4 4 7 7 5 3 6 11 7 28 39 63 63 61 61 58 63 63 56 49 43 36 27 21 23 20 18
5 4 2 1 1 4 7 8 11 15 9 6 5 8 10 20 27 38 36 26 36 43 53 14 4 11 1 4 2 3 5 7 9 8 8 25 46 60 64 66 63 64 61 56 49 41 36 30 24 23 18 17 14 12
4 4 1 2 3 4 8 11 11 11 4 5 10 8 19 14 14 27 37 29 45 48 19 2 4 5 6 9 6 10 5 9 8 7 11 42 58 61 65 63 64 60 52 43 34 32 30 25 20 19 19 18 15 11
9 5 1 3 6 6 8 10 8 9 7 7 13 21 28 34 30 35 26 36 45 23 4 7 7 12 1 6 7 9 9 8 16 22 34 57 63 64 64 66 63 52 41 32 30 27 23 20 24 22 21 22 15 9
8 4 1 4 9 4 11 9 5 5 9 15 13 25 15 25 32 20 20 28 26 27 7 4 13 6 7 7 5 8 7 22 36 43 50 53 53 56 61 64 55 45 39 32 27 27 27 26 25 25 19 20 17 15
4 2 8 12 8 8 8 7 7 7 17 18 27 40 34 32 31 21 22 25 23 29 15 5 4 4 5 1 3 6 25 47 49 44 43 43 46 51 57 54 51 45 37 36 34 28 26 21 28 22 22 21 23 21
5 5 7 11 8 9 5 5 9 9 9 10 18 28 26 21 23 28 27 26 21 21 7 6 7 4 7 27 14 17 38 48 53 47 39 39 43 45 51 55 50 44 40 36 27 22 24 28 33 28 21 24 32 26
8 5 4 2 5 11 5 6 9 10 13 13 18 19 12 17 20 24 18 10 9 3 7 12 11 17 7 18 9 22 39 41 51 47 47 46 45 45 51 47 44 42 39 36 29 28 28 25 28 28 20 16 22 26
8 10 4 4 8 5 9 14 11 9 9 15 17 9 8 5 6 8 8 18 13 22 18 9 9 18 34 22 10 11 28 32 24 26 34 41 52 50 48 46 40 36 33 31 30 30 31 26 23 31 31 26 26 23
6 2 4 7 8 9 9 13 11 9 6 7 5 5 6 6 9 6 9 12 22 45 45 37 21 34 17 38 25 19 24 27 30 29 29 40 43 48 47 44 41 34 37 40 34 32 27 27 34 36 27 37 35 29
10 5 6 9 14 7 8 10 12 8 10 6 6 5 6 10 6 7 7 10 23 22 43 64 65 44 30 27 17 18 25 18 24 26 32 34 41 47 43 47 35 34 46 52 46 43 40 32 35 40 25 47 42 30
7 9 9 10 12 9 8 7 9 7 7 11 7 5 5 8 4 6 6 11 29 45 44 58 65 44 33 24 15 20 12 22 14 13 27 39 39 37 43 38 33 29 39 47 55 43 42 39 36 29 29 44 39 32
8 11 12 13 10 11 10 6 13 14 5 6 10 9 12 5 6 9 6 11 13 26 26 48 55 45 35 22 22 8 7 7 10 9 21 32 40 34 38 40 42 41 33 47 44 51 38 27 29 34 35 35 33 35
8 10 22 20 13 8 8 9 8 6 6 7 5 8 8 7 9 7 2 10 17 9 20 14 28 38 28 25 23 16 17 10 1 14 12 15 20 26 25 27 33 27 32 35 37 40 33 30 32 36 40 36 26 32
14 13 9 10 13 18 4 1 6 8 8 9 5 5 5 4 3 9 8 10 6 26 19 24 18 26 23 22 21 14 9 11 11 11 19 24 19 17 17 22 19 26 14 25 29 21 29 25 35 32 28 31 27 26
15 17 15 12 10 10 12 9 7 4 4 5 3 5 9 9 9 9 3 3 5 9 18 14 19 20 13 2 8 7 6 11 16 22 21 22 17 17 17 18 29 25 21 27 24 21 29 28 38 30 18 8 3 22
12 11 16 9 7 7 12 24 13 10 10 18 10 12 26 30 22 7 11 13 8 20 14 5 14 9 14 17 25 21 18 21 25 19 28 27 24 24 18 19 29 23 25 25 27 31 34 31 30 21 19 22 20 22
12 10 10 6 8 14 14 20 17 11 20 19 17 15 20 11 29 31 19 20 13 14 15 8 5 9 19 20 30 36 29 18 23 13 11 21 24 13 17 28 38 29 15 20 29 31 31 30 30 26 24 22 24 9
16 8 12 8 10 13 15 16 17 24 29 33 33 38 41 32 20 37 22 18 29 23 19 14 14 17 14 16 6 6 25 33 20 18 22 14 13 19 25 29 26 16 32 30 40 38 32 31 24 32 26 20 14 6
10 6 1 6 6 6 5 6 6 6 7 2 3 4 5 4 6 4 8 8 8 9 19 19 17 9 17 11 18 17 15 16 17 24 19 16 20 31 36 34 24 27 19 37 44 38 30 24 20 19 11 14 10 10
Wind_Direction_850mb
267 264 262 267 269 277 284 292 296 300 309 317 326 336 335 339 344 356 240 325 345 274 288 277 219 323 352 76 119 274 331 14 156 110 169 245 149 216 113 183 141 325 113 196 84 99 259 267 356 109 157 110 108 106
268 258 254 259 264 273 278 284 289 296 302 309 319 328 335 331 336 340 332 288 283 269 269 278 278 262 254 180 100 249 143 115 301 22 191 213 71 92 126 163 153 194 188 170 158 206 223 74 125 135 131 124 115 120
265 249 246 247 258 269 278 279 275 283 292 297 312 322 330 328 328 328 329 326 323 280 296 282 347 219 227 192 195 195 225 80 286 274 206 157 92 118 107 210 107 296 115 101 71 310 118 122 126 131 130 123 124 125
258 243 239 243 257 266 273 283 284 279 284 294 302 312 322 322 323 322 325 323 310 300 283 278 290 161 157 174 204 218 218 210 255 268 76 99 115 147 204 178 145 203 116 138 74 83 104 124 133 133 127 130 128 128
255 237 239 246 257 269 272 274 283 286 287 292 298 303 312 315 317 319 319 247 179 350 287 295 318 177 181 186 202 203 206 233 276 308 74 216 204 105 14 80 279 194 174 147 206 183 151 156 140 142 136 134 135 131
244 237 240 246 259 269 274 274 280 283 281 287 293 299 306 308 316 327 200 186 206 327 299 314 315 285 161 179 171 205 229 249 241 234 243 261 146 138 119 191 247 206 212 190 171 178 158 150 145 150 136 137 138 134
238 234 243 257 265 269 274 280 281 285 287 289 293 297 298 301 303 286 240 172 215 238 265 304 292 244 218 172 182 218 211 239 256 213 210 186 194 175 111 175 216 134 148 155 152 145 132 150 144 145 139 137 138 130
234 238 249 258 261 261 264 273 274 279 286 293 294 290 293 295 298 286 265 227 255 268 244 258 270 306 180 161 189 204 209 201 213 206 175 154 153 119 167 223 162 144 147 150 151 166 154 141 138 134 138 143 146 150
243 246 254 256 257 259 261 264 270 279 285 288 291 298 302 276 225 4 280 246 230 228 261 257 224 253 213 184 189 188 192 109 237 159 225 141 292 197 212 176 154 154 155 150 146 141 142 143 140 142 141 152 150 151
237 234 236 240 242 251 260 256 268 281 282 288 303 290 55 38 309 301 258 240 222 210 226 235 266 271 348 336 201 133 148 179 114 243 190 132 228 215 185 190 188 174 161 156 143 140 145 143 148 151 161 165 169 171
221 226 231 235 238 242 247 253 264 262 249 227 124 285 285 281 246 239 242 197 194 250 219 234 226 234 283 189 219 197 178 170 131 261 141 218 257 235 224 202 174 169 174 181 190 180 186 185 167 167 166 166 173 182
215 223 225 230 233 236 244 245 240 225 218 182 279 295 264 247 236 237 228 242 179 228 214 196 225 211 218 251 184 191 157 73 218 165 106 203 246 234 200 188 174 171 169 178 184 173 170 171 175 172 166 166 165 169
218 231 232 228 234 238 245 244 230 216 227 247 248 274 224 231 299 207 225 249 221 228 221 190 213 188 199 247 136 100 117 205 170 55 225 222 213 184 179 156 152 164 168 166 165 164 162 160 166 171 157 156 158 155
169 191 226 231 237 238 232 215 200 191 183 190 168 295 194 232 231 201 231 256 279 304 309 314 197 182 192 100 144 111 235 86 202 194 214 227 200 165 157 158 157 155 158 152 149 152 152 154 155 156 161 162 164 167
190 190 190 159 214 218 193 180 184 182 195 184 205 229 238 249 288 304 296 296 322 304 290 262 160 174 107 115 170 96 150 220 208 221 228 196 174 158 158 159 160 157 155 152 154 155 155 153 150 143 143 150 161 129
178 186 172 20 329 251 204 185 179 178 236 233 234 269 283 299 338 344 344 351 352 339 318 73 112 119 202 165 140 216 195 196 236 223 230 171 165 165 164 167 166 161 155 152 155 157 153 153 155 148 148 137 127 103
166 135 225 306 299 269 192 181 157 197 229 241 253 261 274 289 273 292 325 345 349 354 314 49 320 206 170 150 190 189 204 213 192 176 175 170 169 172 175 171 163 159 157 158 161 160 150 144 147 151 163 182 206 222
133 124 274 309 287 252 181 174 194 239 253 254 257 265 280 287 309 310 328 343 358 342 329 256 305 346 195 195 236 260 243 187 173 169 173 174 175 176 176 169 167 169 165 166 169 166 170 171 176 184 167 177 194 207
226 310 310 304 251 179 170 193 212 262 245 261 268 268 275 283 289 287 296 320 307 330 276 267 245 262 288 23 205 168 172 161 161 167 172 177 181 174 173 174 174 173 176 176 178 184 189 192 174 186 187 196 218 225
228 289 328 331 171 182 199 224 205 250 260 270 259 266 265 264 279 292 300 313 307 321 288 210 203 115 317 355 345 198 176 162 156 156 163 172 177 172 174 176 176 178 178 177 178 181 189 197 199 206 219 254 236 233
252 253 325 358 207 214 227 242 236 243 271 262 277 304 262 242 266 281 291 270 215 229 277 17 14 269 301 16 38 166 174 172 169 170 172 171 177 178 173 178 182 181 184 183 190 194 189 186 195 201 200 177 176 190
259 247 307 225 207 228 262 234 239 273 260 272 294 265 271 268 261 241 252 222 217 216 236 336 350 339 295 271 329 150 183 173 176 170 174 175 174 179 182 185 184 188 204 209 204 205 205 201 186 196 206 211 204 210
222 240 245 219 211 225 258 229 238 218 249 268 257 249 241 234 241 244 255 239 235 231 241 239 239 281 269 254 278 180 154 169 174 197 189 179 179 184 183 186 184 200 217 219 210 201 211 212 212 222 244 224 214 214
221 232 230 215 206 252 236 228 216 243 222 230 238 213 223 228 222 229 245 247 251 255 235 233 248 269 259 259 200 171 174 195 199 193 194 201 188 182 194 202 196 209 214 216 224 218 208 224 229 230 241 207 211 219
223 212 214 223 212 221 230 231 193 207 245 212 213 256 254 201 222 235 241 260 245 233 226 215 225 247 251 226 196 253 203 193 194 156 195 213 205 197 193 200 211 206 196 203 208 202 214 225 222 222 207 208 220 219
234 220 209 208 202 213 208 234 193 207 256 213 222 231 185 190 236 242 241 278 252 221 230 212 219 217 221 207 180 133 124 219 231 173 184 203 212 213 191 182 188 197 208 211 226 223 231 233 206 202 209 214 222 217
248 241 220 225 250 268 266 230 232 286 259 227 231 176 184 231 229 255 247 51 67 164 196 185 195 194 191 185 203 201 241 233 240 217 211 185 188 194 198 192 194 200 194 203 210 224 229 226 211 205 215 226 249 221
244 256 228 230 225 240 222 174 261 219 209 234 294 234 222 243 298 342 349 7 118 89 141 180 166 148 142 127 125 127 151 201 199 149 151 175 181 171 197 220 185 174 187 213 205 207 206 204 198 194 213 229 240 239
237 233 207 274 214 218 215 223 244 261 161 186 251 293 335 311 292 316 242 34 165 192 72 65 144 180 188 234 234 259 271 216 177 163 164 156 160 191 208 200 181 195 223 210 209 200 184 186 177 200 211 175 36 211
242 225 187 264 206 241 215 191 221 256 265 282 217 277 299 288 271 294 249 226 206 166 203 304 152 177 203 212 202 202 225 224 222 214 202 197 205 216 220 221 206 197 195 203 191 166 173 178 188 201 206 232 226 225
253 229 159 236 282 278 269 272 264 257 247 247 245 248 245 261 299 302 254 229 242 219 232 248 271 123 230 257 233 244 229 215 209 217 192 206 214 239 229 191 178 161 178 206 182 186 193 194 195 204 204 198 196 227
250 216 157 173 247 288 291 289 257 250 250 242 243 247 259 258 262 283 288 237 229 239 239 256 289 306 335 296 223 222 213 204 198 206 191 211 201 185 162 157 153 163 180 178 169 163 171 186 196 210 198 191 218 279
259 228 233 280 253 239 235 261 244 290 262 278 293 300 278 255 266 8 110 149 177 230 240 253 264 273 205 202 166 170 172 181 195 204 198 184 173 187 196 173 191 197 195 198 190 191 202 195 190 187 212 241 253 244